TimeICT,TemperatureF,Dew PointF,Humidity,Sea Level PressureIn,VisibilityMPH,Wind Direction,Wind SpeedMPH,Gust SpeedMPH,PrecipitationIn,Events,Conditions,WindDirDegrees,DateUTC
12:00 AM,82.4,75.2,79,29.65,6.2,SSW,5.8,-,N/A,,Mostly Cloudy,210,2013-06-11 17:00:00
12:30 AM,82.4,75.2,79,29.65,6.2,SSE,4.6,-,N/A,,Mostly Cloudy,150,2013-06-11 17:30:00
1:00 AM,82.4,75.2,79,29.62,6.2,SSE,5.8,-,N/A,,Mostly Cloudy,160,2013-06-11 18:00:00
6:00 AM,80.6,77.0,89,29.62,6.2,SSE,2.3,-,N/A,,Scattered Clouds,150,2013-06-11 23:00:00
6:30 AM,82.4,77.0,84,29.62,6.2,SSE,4.6,-,N/A,,Scattered Clouds,160,2013-06-11 23:30:00
7:00 AM,83,78,82,29.69,6,Calm,Calm,,,,Mostly Cloudy,,2013-06-12 00:00:00
7:00 AM,82.4,77.0,84,29.65,6.2,SE,2.3,-,N/A,,Scattered Clouds,130,2013-06-12 00:00:00
7:30 AM,84.2,77.0,79,29.65,6.2,South,3.5,-,N/A,,Scattered Clouds,180,2013-06-12 00:30:00
8:00 AM,86.0,75.2,70,29.65,6.2,WSW,5.8,-,N/A,,Scattered Clouds,240,2013-06-12 01:00:00
8:30 AM,87.8,71.6,58,29.68,6.2,West,8.1,-,N/A,,Scattered Clouds,280,2013-06-12 01:30:00
9:00 AM,89.6,71.6,55,29.68,6.2,West,10.4,-,N/A,,Scattered Clouds,270,2013-06-12 02:00:00
9:30 AM,91.4,71.6,52,29.68,6.2,West,5.8,-,N/A,,Scattered Clouds,280,2013-06-12 02:30:00
10:00 AM,91.4,71.6,52,29.68,6.2,West,9.2,-,N/A,,Scattered Clouds,280,2013-06-12 03:00:00
10:30 AM,91.4,71.6,52,29.65,6.2,WNW,4.6,-,N/A,,Scattered Clouds,290,2013-06-12 03:30:00
11:00 AM,91.4,71.6,52,29.65,6.2,West,9.2,-,N/A,,Scattered Clouds,280,2013-06-12 04:00:00
11:30 AM,93.2,71.6,49,29.65,6.2,West,8.1,-,N/A,,Scattered Clouds,260,2013-06-12 04:30:00
12:00 PM,93.2,71.6,49,29.62,-9999.0,North,-9999.0,-,N/A,,Scattered Clouds,0,2013-06-12 05:00:00
12:30 PM,93.2,71.6,49,29.62,5.0,SSW,27.6,-,N/A,Thunderstorm,Thunderstorm,210,2013-06-12 05:30:00
1:00 PM,80.6,75.2,84,29.65,5.0,SSW,25.3,-,N/A,Rain,Rain,200,2013-06-12 06:00:00
1:30 PM,80.6,75.2,84,29.65,5.0,SSW,11.5,-,N/A,Rain-Thunderstorm,Light Thunderstorms and Rain,210,2013-06-12 06:30:00
2:00 PM,80.6,75.2,84,29.62,5.6,SSW,4.6,-,N/A,Thunderstorm,Thunderstorm,200,2013-06-12 07:00:00
2:30 PM,82.4,77.0,84,29.59,5.6,South,4.6,-,N/A,Thunderstorm,Thunderstorm,180,2013-06-12 07:30:00
3:00 PM,84.2,75.2,74,29.59,6.2,SSW,3.5,-,N/A,,Scattered Clouds,210,2013-06-12 08:00:00
3:30 PM,84.2,75.2,74,29.59,6.2,SSW,8.1,-,N/A,,Scattered Clouds,210,2013-06-12 08:30:00
4:00 PM,84.2,75.2,74,29.56,6.2,SSW,8.1,-,N/A,,Scattered Clouds,200,2013-06-12 09:00:00
4:30 PM,84.2,75.2,74,29.56,6.2,Variable,3.5,-,N/A,,Scattered Clouds,0,2013-06-12 09:30:00
5:00 PM,84.2,75.2,74,29.56,6.2,South,4.6,-,N/A,,Scattered Clouds,190,2013-06-12 10:00:00
5:30 PM,84.2,75.2,74,29.56,6.2,SSE,3.5,-,N/A,,Scattered Clouds,160,2013-06-12 10:30:00
6:00 PM,84.2,75.2,74,29.59,6.2,SE,4.6,-,N/A,,Scattered Clouds,140,2013-06-12 11:00:00
6:30 PM,82.4,75.2,79,29.59,5.6,SE,4.6,-,N/A,,Scattered Clouds,130,2013-06-12 11:30:00
7:00 PM,82.4,77.0,84,29.62,5.6,ESE,4.6,-,N/A,,Scattered Clouds,120,2013-06-12 12:00:00
7:30 PM,82.4,78.8,89,29.65,5.6,SE,5.8,-,N/A,,Scattered Clouds,130,2013-06-12 12:30:00
8:00 PM,82.4,77.0,84,29.65,5.6,South,4.6,-,N/A,,Scattered Clouds,170,2013-06-12 13:00:00
8:30 PM,82.4,77.0,84,29.65,5.6,SE,4.6,-,N/A,,Scattered Clouds,140,2013-06-12 13:30:00
9:00 PM,82.4,77.0,84,29.68,5.6,ESE,2.3,-,N/A,,Scattered Clouds,120,2013-06-12 14:00:00
9:30 PM,82.4,77.0,84,29.68,5.6,ESE,4.6,-,N/A,,Scattered Clouds,110,2013-06-12 14:30:00
10:00 PM,82.4,77.0,84,29.68,5.6,ESE,4.6,-,N/A,,Scattered Clouds,110,2013-06-12 15:00:00
10:30 PM,82.4,77.0,84,29.68,5.6,ESE,3.5,-,N/A,,Scattered Clouds,110,2013-06-12 15:30:00
11:00 PM,82.4,77.0,84,29.68,5.6,ESE,4.6,-,N/A,,Scattered Clouds,110,2013-06-12 16:00:00
11:30 PM,82.4,77.0,84,29.68,5.6,SE,4.6,-,N/A,,Scattered Clouds,130,2013-06-12 16:30:00